Location: The Saddle
(36.8333°N, 80.3417°W)
Time: 07:23:22
(UTC-05:00)

Vanguard 2 Rocket - Pass Details

Date: 17 December 2023
Orbit: 555 x 3309 km, 32.9° (Epoch: 02 March)

Event Time Altitude Azimuth Distance (km) Brightness Sun altitude
Rises 17:44:40 0° 282° (WNW) 6,509 12.2 -7.6°
Reaches altitude 10° 17:49:02 10° 276° (W) 5,768 12.1 -8.4°
Maximum altitude 18:05:34 40° 216° (SW) 4,281 10.8 -11.5°
Drops below altitude 10° 18:22:27 10° 155° (SSE) 5,830 10.9 -14.7°
Sets 18:26:59 0° 148° (SSE) 6,576 11.1 -15.5°
